Location: Unspecified
(0.0000°N, 0.0000°E)
Time: 03:25:22
(UTC+00:00)

Amateur Radio Satellites - All Passes

Search period start: 29 March 2017 02:55
Search period end: 30 March 2017 02:55
Location: Unspecified, 0.0000°N, 0.0000°E

Satellite Date Start Highest point End Downlink Frequencies (MHz)
Time Altitude Azimuth
MOZHAYETS 4 29 Mar 03:06:49 03:11:28 81° 77° (ENE) 03:16:03
BEESAT 29 Mar 03:12:33 03:16:39 28° 257° (WSW) 03:20:45 436.000
AO-7 29 Mar 03:15:11 03:23:28 86° 106° (ESE) 03:31:50 .
ITUPSAT 1 29 Mar 03:31:26 03:34:35 18° 257° (WSW) 03:37:44 437.325
O/OREOS (USA 219) 29 Mar 03:42:30 03:45:50 20° 256° (WSW) 03:49:11 437.305
ITAMSAT 1 29 Mar 03:47:33 03:51:38 24° 283° (WNW) 03:55:43 435.822/435.867
NO-84 29 Mar 03:58:05 03:59:44 13° 300° (WNW) 04:01:20 435.350 FM
JUGNU 29 Mar 04:05:59 04:10:52 27° 342° (NNW) 04:15:46 437.505
CUBESAT XI-V 29 Mar 04:06:00 04:10:26 48° 79° (ENE) 04:14:51 437.345
KKS-1 29 Mar 04:06:29 04:10:55 72° 78° (ENE) 04:15:21 437.445
SRMSAT 29 Mar 04:23:14 04:29:12 86° 161° (SSE) 04:35:12 437.500
Tancredo 1 29 Mar 04:32:55 04:36:06 85° 235° (SW) 04:39:18 437.200
STARS 29 Mar 04:35:29 04:39:51 62° 77° (ENE) 04:44:12 437.465
ISS 29 Mar 04:44:33 04:47:49 68° 235° (SW) 04:51:06 437.550
AO-85 29 Mar 05:12:14 05:13:46 12° 70° (ENE) 05:15:21 145.980
XW-2F 29 Mar 05:26:58 05:30:20 32° 101° (ESE) 05:33:44 145.980 - 146.000
DOVE 4 29 Mar 05:29:30 05:34:32 64° 101° (ESE) 05:39:19 437.250
LilacSat-2 29 Mar 05:32:52 05:36:29 47° 101° (ESE) 05:40:09 437.200
M-CUBED/EXP-1 PRIME 29 Mar 05:40:26 05:43:26 30° 74° (ENE) 05:46:34 437.505
NUDT-PHONESAT 29 Mar 05:44:23 05:47:57 50° 102° (ESE) 05:51:31 437.300
XW-2D 29 Mar 05:54:14 05:57:57 75° 281° (WNW) 06:01:44 145.860 - 145.880
CUTE-I 29 Mar 05:54:45 06:00:02 77° 103° (ESE) 06:05:21 437.470
KAITUO 1B 29 Mar 05:54:56 05:58:36 79° 101° (E) 06:02:20 145.475/437.950
JUGNU 29 Mar 05:57:52 06:00:30 13° 350° (N) 06:03:07 437.505
XW-2B 29 Mar 06:00:16 06:03:58 61° 281° (W) 06:07:41 145.730 - 145.750
STRAND 1 29 Mar 06:02:39 06:05:20 14° 77° (ENE) 06:08:00 437.568
XW-2C 29 Mar 06:10:45 06:14:15 39° 281° (WNW) 06:17:48 145.795 - 145.815
PCSat 29 Mar 06:10:53 06:13:53 15° 110° (ESE) 06:16:54 145.827
SRMSAT 29 Mar 06:13:04 06:18:28 35° 341° (NNW) 06:23:53 437.500
HO-68 29 Mar 06:21:50 06:27:43 28° 105° (ESE) 06:33:36 435.675
YUBILEINY 29 Mar 06:36:26 06:45:16 84° 93° (E) 06:54:01 435.215
XW-2A 29 Mar 06:47:52 06:51:04 47° 101° (E) 06:54:18 145.665 - 145.685
AO-85 29 Mar 06:50:08 06:53:50 28° 247° (WSW) 06:57:48 145.980
SEEDS 29 Mar 07:15:05 07:19:12 53° 101° (ESE) 07:23:21 437.485
CUTE 1.7 + AOD 2 29 Mar 07:27:06 07:31:14 55° 281° (WNW) 07:35:26 437.475
BEESAT 3 29 Mar 07:34:35 07:38:28 61° 68° (ENE) 07:42:19 437.485
ZACube-1 29 Mar 07:34:48 07:37:04 14° 102° (ESE) 07:39:21 437.345
CUBEBUG 2 29 Mar 07:37:47 07:41:56 70° 101° (E) 07:46:03 437.445
STRAND 1 29 Mar 07:39:35 07:44:13 34° 257° (WSW) 07:48:51 437.568
PCSat 29 Mar 07:52:09 07:57:01 35° 289° (WNW) 08:01:54 145.827
BEESAT 2 29 Mar 07:56:34 08:00:12 34° 68° (ENE) 08:03:48 435.950
AO-73 29 Mar 08:00:10 08:03:48 30° 102° (ESE) 08:07:27 145.935
SRMSAT 29 Mar 08:04:35 08:08:09 16° 347° (NNW) 08:11:43 437.500
HO-68 29 Mar 08:08:53 08:15:05 32° 285° (WNW) 08:21:20 435.675
PRISM 29 Mar 08:20:42 08:21:43 11° 78° (ENE) 08:22:44 437.425
AAUSAT CUBESAT 2 29 Mar 08:27:06 08:30:48 31° 281° (W) 08:34:32 437.432
UWE-3 29 Mar 08:35:03 08:38:42 30° 281° (WNW) 08:42:21 435.000/436.395/437.385
Oscar 11 29 Mar 08:56:29 09:00:34 44° 281° (WNW) 09:04:42 .
FO-29 29 Mar 08:59:30 09:04:50 20° 76° (ENE) 09:10:07 435.910
ZACube-1 29 Mar 09:10:04 09:13:05 20° 281° (WNW) 09:16:08 437.345
DELFI C3 29 Mar 09:21:11 09:25:10 90° 53° (NE) 09:29:12 145.870
JUGNU 29 Mar 09:38:03 09:40:46 13° 11° (N) 09:43:29 437.505
TIGRISAT 29 Mar 09:45:38 09:50:19 82° 79° (E) 09:55:01 435.000
PRISM 29 Mar 09:53:22 09:56:44 25° 258° (WSW) 10:00:05 437.425
UNISAT 6 29 Mar 09:56:44 10:01:22 64° 258° (WSW) 10:06:01 437.425
SRMSAT 29 Mar 09:58:06 09:58:23 10° 357° (N) 09:58:39 437.500
LO-87 29 Mar 10:05:26 10:08:15 21° 101° (ESE) 10:11:02 145.935 - 145.965
ESTCUBE 1 29 Mar 10:07:57 10:09:25 11° 102° (ESE) 10:10:55 437.505/2401.250
RS-15 29 Mar 10:22:58 10:34:22 81° 110° (ESE) 10:46:23 29.354- 29.394
QB50P2 29 Mar 10:27:56 10:29:57 13° 78° (ENE) 10:31:58 145.880/145.840
DUCHIFAT 1 29 Mar 10:36:06 10:37:39 12° 78° (ENE) 10:39:11 145.980
FO-29 29 Mar 10:41:56 10:49:25 53° 257° (WSW) 10:56:59 435.910
AIST 2D 29 Mar 10:56:45 11:00:18 75° 79° (E) 11:03:50 435.315
VELOX 1 29 Mar 11:06:39 11:09:27 16° 102° (ESE) 11:12:14 145.980
NANOSAT C BR1 29 Mar 11:21:00 11:25:13 67° 79° (ENE) 11:29:27 145.865
JUGNU 29 Mar 11:25:25 11:30:24 27° 18° (NNE) 11:35:26 437.505
EO-79 29 Mar 11:27:24 11:31:40 87° 255° (WSW) 11:35:57 145.935-145.965
SPROUT 29 Mar 11:28:08 11:31:44 27° 102° (ESE) 11:35:20 437.525
SO-50 29 Mar 11:41:22 11:45:55 46° 112° (ESE) 11:50:24 436.795
ESTCUBE 1 29 Mar 11:41:57 11:45:56 31° 282° (WNW) 11:49:58 437.505/2401.250
SRMSAT 29 Mar 11:46:40 11:48:45 12° 8° (N) 11:50:50 437.500
POLYITAN 1 29 Mar 11:56:54 12:00:42 31° 258° (WSW) 12:04:30 437.675
QB50P2 29 Mar 12:01:59 12:05:28 24° 258° (WSW) 12:08:57 145.880/145.840
DX 1 29 Mar 12:08:53 12:12:58 39° 102° (ESE) 12:17:03 434.975-435.025
DUCHIFAT 1 29 Mar 12:09:28 12:13:02 26° 258° (WSW) 12:16:37 145.980
BUGSAT 1 29 Mar 12:12:56 12:17:08 80° 77° (ENE) 12:21:20 437.445
50 SAT 29 Mar 12:18:37 12:22:06 66° 282° (WNW) 12:25:36 437.505
RS-15 29 Mar 12:40:35 12:46:46 16° 294° (WNW) 12:53:09 29.354- 29.394
VELOX 1 29 Mar 12:42:14 12:45:37 22° 282° (WNW) 12:49:00 145.980
UKube-1 29 Mar 12:42:40 12:46:59 78° 101° (ESE) 12:51:19 .
Oscar 19 29 Mar 12:49:01 12:53:58 49° 78° (ENE) 12:58:52 437.125/150
SPROUT 29 Mar 13:06:00 13:07:22 11° 282° (WNW) 13:08:45 437.525
JUGNU 29 Mar 13:13:38 13:19:36 72° 21° (NNE) 13:25:36 437.505
Gurwin Techsat 1B 29 Mar 13:26:55 13:32:12 70° 77° (ENE) 13:37:29 435.225
SRMSAT 29 Mar 13:34:10 13:38:45 22° 16° (NNE) 13:43:19 437.500
AO-7 29 Mar 13:52:43 13:57:39 17° 73° (ENE) 14:02:30 .
BEESAT 29 Mar 13:56:53 14:00:53 27° 103° (ESE) 14:04:55 436.000
NO-84 29 Mar 14:03:31 14:05:55 16° 60° (ENE) 14:08:26 435.350 FM
O/OREOS (USA 219) 29 Mar 14:13:48 14:17:41 29° 104° (ESE) 14:21:34 437.305
ITUPSAT 1 29 Mar 14:14:38 14:19:10 46° 103° (ESE) 14:23:43 437.325
ITAMSAT 1 29 Mar 14:42:19 14:47:27 56° 77° (ENE) 14:52:32 435.822/435.867
JUGNU 29 Mar 15:03:03 15:08:42 42° 200° (SSW) 15:14:21 437.505
SRMSAT 29 Mar 15:22:21 15:28:12 55° 21° (NNE) 15:34:02 437.500
MOZHAYETS 4 29 Mar 15:23:29 15:27:57 59° 281° (WNW) 15:32:28
BEESAT 29 Mar 15:35:46 15:38:24 15° 283° (WNW) 15:41:02 436.000
NO-84 29 Mar 15:40:17 15:43:19 22° 236° (SW) 15:46:33 435.350 FM
AO-7 29 Mar 15:41:47 15:49:59 61° 254° (WSW) 15:58:10 .
O/OREOS (USA 219) 29 Mar 15:55:25 15:56:49 11° 285° (WNW) 15:58:13 437.305
Tancredo 1 29 Mar 16:04:25 16:07:26 46° 126° (SE) 16:10:27 437.200
ISS 29 Mar 16:18:30 16:21:43 66° 127° (SE) 16:24:55 437.550
KKS-1 29 Mar 16:18:51 16:23:18 76° 282° (WNW) 16:27:44 437.445
CUBESAT XI-V 29 Mar 16:23:50 16:28:31 87° 97° (E) 16:33:15 437.345
STARS 29 Mar 16:46:13 16:50:35 89° 101° (E) 16:54:58 437.465
JUGNU 29 Mar 16:54:08 16:58:08 18° 194° (SSW) 17:02:09 437.505
CUTE-I 29 Mar 16:56:47 16:59:37 14° 77° (ENE) 17:02:26 437.470
SRMSAT 29 Mar 17:11:35 17:17:25 54° 201° (SSW) 17:23:14 437.500
YUBILEINY 29 Mar 17:16:33 17:22:10 19° 87° (E) 17:27:48 435.215
XW-2F 29 Mar 17:20:32 17:23:46 26° 79° (E) 17:26:58 145.980 - 146.000
AO-85 29 Mar 17:23:05 17:27:16 26° 113° (ESE) 17:31:12 145.980
LilacSat-2 29 Mar 17:27:21 17:30:58 38° 79° (E) 17:34:33 437.200
NUDT-PHONESAT 29 Mar 17:36:10 17:39:40 36° 79° (E) 17:43:08 437.300
M-CUBED/EXP-1 PRIME 29 Mar 17:39:01 17:43:13 37° 105° (ESE) 17:47:13 437.505
KAITUO 1B 29 Mar 17:47:22 17:51:06 58° 79° (E) 17:54:47 145.475/437.950
XW-2D 29 Mar 17:47:55 17:51:46 86° 74° (ENE) 17:55:34 145.860 - 145.880
DOVE 4 29 Mar 17:49:55 17:54:15 69° 258° (WSW) 17:58:50 437.250
XW-2B 29 Mar 17:53:56 17:57:47 79° 259° (W) 18:01:36 145.730 - 145.750
XW-2C 29 Mar 18:04:22 18:08:06 51° 259° (WSW) 18:11:49 145.795 - 145.815
HO-68 29 Mar 18:14:00 18:19:23 23° 75° (ENE) 18:24:43 435.675
XW-2A 29 Mar 18:31:02 18:33:53 24° 79° (E) 18:36:43 145.665 - 145.685
STRAND 1 29 Mar 18:33:13 18:37:49 35° 103° (ESE) 18:42:26 437.568
CUTE-I 29 Mar 18:34:29 18:39:22 36° 257° (WSW) 18:44:15 437.470
PCSat 29 Mar 18:44:53 18:50:02 47° 71° (ENE) 18:55:12 145.827
JUGNU 29 Mar 18:46:59 18:48:08 10° 185° (S) 18:49:16 437.505
AAUSAT CUBESAT 2 29 Mar 18:58:49 18:59:07 10° 79° (ENE) 18:59:26 437.432
SRMSAT 29 Mar 19:02:23 19:06:52 22° 196° (SSW) 19:11:21 437.500
AO-85 29 Mar 19:04:19 19:07:25 17° 290° (WNW) 19:10:23 145.980
YUBILEINY 29 Mar 19:10:11 19:18:32 52° 267° (W) 19:27:01 435.215
UWE-3 29 Mar 19:10:42 19:13:36 16° 78° (ENE) 19:16:29 435.000/436.395/437.385
M-CUBED/EXP-1 PRIME 29 Mar 19:16:29 19:17:16 10° 287° (WNW) 19:18:04 437.505
SEEDS 29 Mar 19:20:20 19:24:29 65° 79° (ENE) 19:28:36 437.485
BEESAT 3 29 Mar 19:26:21 19:30:07 60° 112° (ESE) 19:33:55 437.485
CUTE 1.7 + AOD 2 29 Mar 19:33:36 19:37:38 43° 258° (WSW) 19:41:38 437.475
ZACube-1 29 Mar 19:43:19 19:46:55 23° 79° (ENE) 19:50:29 437.345
CUBEBUG 2 29 Mar 19:49:25 19:54:08 78° 258° (WSW) 19:58:53 437.445
BEESAT 2 29 Mar 19:49:37 19:53:09 34° 112° (ESE) 19:56:42 435.950
HO-68 29 Mar 20:00:15 20:06:47 38° 255° (WSW) 20:13:17 435.675
AO-73 29 Mar 20:08:56 20:13:19 46° 79° (ENE) 20:17:39 145.935
STRAND 1 29 Mar 20:14:21 20:16:43 13° 283° (WNW) 20:19:05 437.568
PRISM 29 Mar 20:22:29 20:24:14 12° 102° (ESE) 20:26:01 437.425
AAUSAT CUBESAT 2 29 Mar 20:30:49 20:34:19 27° 258° (WSW) 20:37:49 437.432
PCSat 29 Mar 20:31:49 20:33:12 11° 250° (WSW) 20:34:34 145.827
JUGNU 29 Mar 20:36:57 20:38:21 11° 174° (S) 20:39:45 437.505
UWE-3 29 Mar 20:45:59 20:49:46 25° 258° (WSW) 20:53:33 435.000/436.395/437.385
SRMSAT 29 Mar 20:54:59 20:56:51 11° 188° (S) 20:58:43 437.500
Oscar 11 29 Mar 21:05:26 21:09:20 33° 258° (WSW) 21:13:13 .
DELFI C3 29 Mar 21:19:38 21:23:33 85° 79° (ENE) 21:27:27 145.870
ZACube-1 29 Mar 21:19:58 21:22:54 17° 258° (WSW) 21:25:49 437.345
LO-87 29 Mar 21:54:23 21:56:15 14° 79° (ENE) 21:58:06 145.935 - 145.965
PRISM 29 Mar 21:55:52 21:59:14 24° 282° (WNW) 22:02:38 437.425
TIGRISAT 29 Mar 21:59:07 22:03:19 64° 281° (WNW) 22:07:31 435.000
RS-15 29 Mar 22:06:01 22:17:42 70° 69° (ENE) 22:28:46 29.354- 29.394
UNISAT 6 29 Mar 22:10:36 22:14:33 38° 281° (WNW) 22:18:30 437.425
FO-29 29 Mar 22:16:51 22:22:06 87° 281° (WNW) 22:27:19 435.910
ESTCUBE 1 29 Mar 22:20:31 22:23:31 18° 78° (ENE) 22:26:30 437.505/2401.250
JUGNU 29 Mar 22:24:09 22:28:17 19° 165° (SSE) 22:32:23 437.505
POLYITAN 1 29 Mar 22:29:45 22:31:20 12° 102° (ESE) 22:32:55 437.675
QB50P2 29 Mar 22:33:36 22:36:08 16° 102° (ESE) 22:38:39 145.880/145.840
DUCHIFAT 1 29 Mar 22:40:49 22:42:55 14° 102° (ESE) 22:45:00 145.980
AIST 2D 29 Mar 22:43:01 22:46:18 40° 101° (E) 22:49:35 435.315
VELOX 1 29 Mar 23:17:27 23:20:55 23° 78° (ENE) 23:24:24 145.980
NANOSAT C BR1 29 Mar 23:26:39 23:30:49 81° 102° (ESE) 23:35:00 145.865
LO-87 29 Mar 23:27:23 23:29:26 15° 259° (W) 23:31:28 145.935 - 145.965
EO-79 29 Mar 23:33:29 23:37:38 70° 282° (WNW) 23:41:49 145.935-145.965
SPROUT 29 Mar 23:34:57 23:38:52 34° 78° (ENE) 23:42:46 437.525
SO-50 29 Mar 23:53:50 23:58:20 86° 70° (ENE) 00:02:54 436.795
ESTCUBE 1 29 Mar 23:56:46 00:00:03 20° 258° (WSW) 00:03:19 437.505/2401.250
POLYITAN 1 30 Mar 00:03:24 00:06:50 25° 282° (WNW) 00:10:17 437.675
50 SAT 30 Mar 00:03:48 00:07:12 63° 80° (E) 00:10:35 437.505
QB50P2 30 Mar 00:08:37 00:11:39 20° 282° (WNW) 00:14:41 145.880/145.840
JUGNU 30 Mar 00:12:00 00:17:38 45° 160° (SSE) 00:23:13 437.505
DUCHIFAT 1 30 Mar 00:15:06 00:18:19 22° 282° (WNW) 00:21:33 145.980
BUGSAT 1 30 Mar 00:16:07 00:20:10 89° 96° (E) 00:24:12 437.445
DX 1 30 Mar 00:18:19 00:22:33 53° 78° (ENE) 00:26:46 434.975-435.025
RS-15 30 Mar 00:22:31 00:29:37 19° 248° (WSW) 00:36:37 29.354- 29.394
Gurwin Techsat 1B 30 Mar 00:28:47 00:30:58 13° 103° (ESE) 00:33:09 435.225
SRMSAT 30 Mar 00:33:53 00:37:25 16° 167° (SSE) 00:40:58 437.500
UKube-1 30 Mar 00:51:06 00:55:24 79° 256° (WSW) 00:59:42 .
VELOX 1 30 Mar 00:54:39 00:57:07 15° 258° (WSW) 00:59:34 145.980
Oscar 19 30 Mar 01:22:24 01:27:32 64° 282° (WNW) 01:32:41 437.125/150
NO-84 30 Mar 01:49:50 01:51:17 12° 125° (SE) 01:52:41 435.350 FM
JUGNU 30 Mar 02:00:52 02:06:41 64° 339° (NNW) 02:12:28 437.505
Gurwin Techsat 1B 30 Mar 02:05:41 02:10:37 40° 283° (WNW) 02:15:35 435.225
MOZHAYETS 4 30 Mar 02:06:48 02:07:51 11° 78° (ENE) 02:08:53
AO-7 30 Mar 02:16:58 02:23:50 29° 107° (ESE) 02:30:41 .
BEESAT 30 Mar 02:18:07 02:22:48 54° 77° (ENE) 02:27:27 436.000
SRMSAT 30 Mar 02:21:40 02:27:04 36° 160° (SSE) 02:32:28 437.500
O/OREOS (USA 219) 30 Mar 02:24:16 02:28:42 51° 76° (ENE) 02:33:08 437.305
ITUPSAT 1 30 Mar 02:36:40 02:41:29 87° 255° (WSW) 02:46:16 437.325
